Home   Weather   Milton Keynes   Past weeks

Flag for United Kingdom Past Weather in Milton Keynes, England, United Kingdom — Yesterday and Last 2 Weeks

Now
45 °F

Fog.


Feels Like: 41 °F
Forecast: 34 / 46 °F
Wind: 6 mph from South

Location: Cranfield

Current Time: Dec 6, 2016 at 12:23:39 pm

Latest Report: Dec 6, 2016 at 11:50 am


Visibility: 0 mi

Pressure: 30.30 "Hg

Humidity: 100%

Dew Point: 45 °F

Location of Milton KeynesLocation

Past Weather in Milton Keynes — Graph

°F

Milton Keynes Temperature Yesterday

Maximum temperature yesterday: 39 °F (at 12:50 pm)
Minimum temperature yesterday: 30 °F (at 7:50 am)
Average temperature yesterday: 36 °F

High & Low Weather Summary for the Past Weeks

 TemperatureHumidityPressure
High52 °F (Nov 21, 2:20 pm)100% (Nov 21, 11:20 am)30.57 "Hg (Nov 21, 11:20 am)
Low25 °F (Nov 29, 7:50 am)57% (Nov 28, 1:50 pm)29.03 "Hg (Nov 21, 2:20 pm)
Average43 °F88%30.15 "Hg
* Reported Nov 21 11:20 am — Dec 6 11:20 am, Milton Keynes, Weather by CustomWeather, © 2016

Note: Actual official high and low records may vary slightly from our data, if they occured in-between our weather recording intervals... More about our weather records

Advertising

Milton Keynes Weather History for the Previous 24 Hours

Scroll right to see more
 ConditionsComfort  
Time TempWeatherWind HumidityBarometerVisibility
11:20 am
Tue, Dec 6
43 °FFog.3 mph100%30.30 "Hg0 mi
10:50 am43 °FFog.5 mph100%30.33 "Hg0 mi
10:20 am41 °FFog.5 mph100%30.33 "Hg0 mi
9:50 am41 °FFog.3 mph100%30.33 "Hg0 mi
9:20 am39 °FFog.3 mph100%30.33 "Hg0 mi
8:50 am39 °FFog.5 mph100%30.30 "Hg1 mi
8:20 am37 °FFog.3 mph100%30.30 "Hg0 mi
7:50 am37 °FFog.2 mph100%30.30 "Hg1 mi
5:20 pm
Mon, Dec 5
37 °FFog.7 mph93%30.24 "Hg1 mi
4:50 pm39 °FFog.9 mph93%30.24 "Hg1 mi
4:20 pm39 °FFog.7 mph93%30.24 "Hg1 mi
3:50 pm39 °FFog.6 mph93%30.24 "Hg1 mi
3:20 pm39 °FFog.7 mph93%30.24 "Hg1 mi
2:50 pm39 °FFog.6 mph93%30.21 "Hg1 mi
2:20 pm39 °FFog.7 mph93%30.21 "Hg1 mi
1:50 pm39 °FFog.6 mph93%30.21 "Hg1 mi
1:20 pm39 °FFog.3 mph93%30.21 "Hg1 mi
12:50 pm39 °FFog.5 mph93%30.21 "Hg1 mi
Weather by CustomWeather, © 2016

See weather overviewHow to use our weather pages